Theta_e
312 312 310 310 312 315 320 319 319 320 320 321 321 320 318 318 319 318 320 321 320 320 320 320 320 321 349 350 351 345 340 338 349 349 349 351 348 349 348 349 351 350 349 347
308 312 311 311 312 314 318 320 319 321 322 320 319 320 319 319 318 319 319 321 320 320 319 321 320 322 348 354 351 350 340 339 350 350 347 347 349 349 348 349 350 348 346 348
309 311 311 310 311 314 315 319 319 320 321 321 320 320 320 320 319 321 320 321 321 320 320 321 321 328 346 349 351 347 336 341 339 349 350 349 347 347 347 349 349 350 348 346
310 311 312 312 310 313 316 318 321 321 320 320 321 321 320 320 319 319 320 320 321 321 320 320 320 338 348 348 351 352 345 337 348 347 349 349 349 347 348 348 348 348 346 346
313 313 313 312 311 311 314 317 320 321 321 322 321 319 321 319 320 320 319 320 321 321 321 321 326 335 341 345 348 349 336 343 348 348 348 350 348 348 348 347 347 346 344 343
313 312 312 314 314 312 314 316 319 320 321 324 324 319 318 320 320 320 319 321 322 322 322 321 332 340 344 347 346 345 330 344 348 349 347 349 348 347 347 346 344 342 344 341
314 313 311 314 314 315 312 314 320 322 323 329 325 323 319 321 320 320 320 322 323 322 322 335 337 346 349 347 345 337 346 346 347 347 348 347 346 346 345 342 342 341 339 336
319 316 312 312 313 315 311 312 324 327 324 325 324 327 321 321 322 322 322 322 323 323 322 335 344 347 348 345 342 341 344 348 347 347 347 346 345 344 343 342 341 340 338 332
318 315 312 312 314 315 316 313 317 322 321 324 325 325 328 324 324 320 321 322 323 323 324 338 346 348 348 344 343 344 346 346 347 345 343 343 340 341 340 342 340 338 335 327
315 318 314 312 314 315 316 315 317 323 327 328 326 325 326 328 327 321 320 319 328 338 341 346 346 345 343 343 343 343 344 342 340 340 339 340 339 338 337 336 335 332 326 319
316 317 315 312 315 317 317 318 319 320 323 323 328 326 328 334 322 326 331 335 339 340 339 341 342 341 341 342 342 339 339 338 338 338 337 337 335 333 333 328 323 318 315 314
315 319 318 312 316 316 316 317 319 322 324 325 328 329 330 332 332 332 331 337 338 337 336 338 340 340 339 336 335 334 334 332 331 330 330 328 324 322 320 316 314 312 311 312
314 319 317 315 318 318 319 318 320 321 323 325 329 332 331 330 331 333 336 336 336 335 334 334 334 332 331 331 330 329 328 327 324 323 322 319 317 315 313 312 311 311 312 314
314 317 320 317 317 319 321 321 319 321 326 329 330 336 332 328 328 329 332 333 333 333 330 329 327 328 328 326 325 324 323 322 321 320 318 315 313 311 311 311 311 312 315 315
316 318 318 319 321 318 320 320 321 322 324 327 330 332 330 328 328 328 330 330 328 326 326 324 323 323 323 322 321 321 320 320 319 315 314 313 313 313 311 312 314 315 315 315
315 319 319 320 320 321 319 319 320 320 322 330 330 332 329 327 328 329 327 325 324 322 320 319 319 319 318 318 317 316 316 316 314 314 314 313 313 312 313 314 315 314 312 312
314 319 322 322 321 322 321 320 319 323 328 328 331 329 326 325 325 324 323 321 320 319 317 316 316 316 316 315 315 314 313 312 312 312 312 312 312 312 313 314 313 312 312 311
317 320 320 322 322 319 322 320 325 327 328 327 326 326 324 323 322 321 320 318 316 315 315 315 314 314 313 313 312 312 312 311 311 311 311 311 311 312 312 312 310 311 312 312
318 319 323 319 322 322 319 317 321 325 327 324 325 323 322 321 318 318 316 315 314 314 313 313 313 312 311 311 311 311 310 310 310 309 310 310 310 309 309 309 309 310 311 311
316 317 320 322 322 323 317 311 311 314 329 323 322 322 320 318 316 314 313 314 313 313 312 312 311 311 311 311 311 310 309 308 308 309 309 308 308 308 308 308 308 309 311 310
311 310 319 321 322 318 307 306 309 324 325 322 321 320 317 314 312 311 311 310 311 311 311 310 310 310 309 310 309 308 308 308 308 307 307 307 308 308 307 307 308 308 309 309
307 310 308 314 319 318 304 309 324 321 321 320 317 314 311 309 308 307 309 309 309 309 308 307 308 307 307 307 307 306 306 306 306 307 306 306 306 307 306 307 307 308 308 308
308 305 305 305 304 301 301 304 318 317 316 314 311 310 309 307 307 307 306 306 306 306 305 305 306 306 305 304 304 304 303 304 303 303 303 304 304 305 306 306 307 307 306 306
300 300 305 306 303 301 302 311 314 314 312 312 311 309 308 306 306 305 305 305 304 304 303 303 302 302 301 302 302 302 302 302 302 302 301 302 303 304 305 306 305 305 305 304
299 299 301 302 300 302 302 304 312 311 311 308 306 304 304 305 305 304 304 303 303 302 302 301 300 300 299 299 299 300 300 300 300 300 300 300 301 302 302 304 304 303 303 302
297 299 301 300 298 299 299 301 305 306 306 305 305 304 304 304 303 303 302 302 301 301 300 300 299 298 298 297 296 295 297 298 299 299 298 298 299 300 301 301 301 300 300 298
Wind_Speed
8 5 15 17 20 23 19 20 22 15 20 16 23 16 14 12 15 20 25 26 27 25 28 31 30 27 33 28 28 40 30 34 37 35 38 31 30 23 19 11 16 13 12 8
10 13 21 18 19 23 25 23 21 16 18 19 12 16 9 13 12 23 26 31 34 32 36 36 32 27 33 33 31 36 35 33 29 29 33 38 33 28 21 19 15 12 9 11
13 11 14 25 21 21 26 23 19 16 16 16 11 7 16 19 21 19 35 39 36 39 37 31 30 25 29 27 27 32 41 32 35 33 33 29 27 23 24 22 18 18 14 13
12 17 18 20 24 21 22 21 21 16 13 13 17 13 14 19 15 14 17 33 36 36 37 31 28 28 32 29 31 35 29 33 31 24 28 27 24 26 25 23 22 17 14 16
8 9 13 18 21 22 20 19 17 19 13 1 15 10 16 13 11 15 14 27 38 38 37 33 28 30 30 31 30 27 24 30 24 21 21 24 22 18 21 23 23 18 17 20
19 19 14 9 15 21 18 19 19 16 9 7 18 10 7 15 23 14 8 27 40 39 36 33 31 30 28 23 20 18 28 21 19 21 22 20 20 23 24 20 13 16 19 15
10 20 19 14 6 17 21 14 7 10 8 6 11 7 7 15 14 12 11 23 35 38 34 30 34 29 28 26 20 6 20 23 21 20 18 18 18 17 15 15 16 15 12 9
4 4 18 21 23 6 18 14 3 5 8 11 11 7 13 10 15 21 29 30 31 38 35 34 35 28 26 27 31 33 26 23 21 22 22 23 24 23 20 16 18 14 8 6
4 5 13 17 9 10 6 12 18 5 5 5 5 4 2 15 12 15 23 34 26 38 35 34 36 29 26 27 23 26 28 26 23 23 23 19 17 21 20 27 22 15 10 4
4 6 12 18 15 15 8 6 10 4 5 6 5 9 5 5 5 16 19 15 29 33 39 41 38 32 28 28 28 23 21 22 22 17 18 20 18 20 21 20 17 11 8 3
3 3 3 17 6 10 3 2 5 3 4 5 6 5 6 6 13 18 20 35 36 40 44 45 42 38 33 31 29 27 19 20 17 16 18 19 17 17 18 15 13 10 7 3
4 3 4 13 14 18 6 8 8 7 6 3 4 1 9 15 17 22 26 39 41 42 45 47 44 40 35 32 30 26 21 18 15 16 16 18 18 17 15 12 10 8 5 2
5 1 3 6 7 4 4 8 11 8 3 4 2 2 7 11 16 22 34 39 41 42 44 44 43 42 37 32 28 23 18 15 16 17 17 17 16 14 13 10 8 6 4 5
6 4 3 1 3 4 3 5 5 3 1 5 3 7 4 6 10 11 25 36 38 39 38 40 40 40 35 30 25 21 17 16 16 16 15 14 12 10 9 7 6 7 6 3
5 3 5 10 14 7 6 6 5 6 12 5 9 13 7 5 5 14 28 34 39 40 39 39 40 39 37 33 29 26 23 16 13 15 14 12 9 8 7 8 8 5 3 1
2 3 6 6 3 8 3 7 10 12 22 16 16 12 5 10 18 17 28 36 38 37 39 40 41 39 36 32 29 26 20 16 15 16 15 9 8 10 9 6 4 1 5 6
1 2 2 1 2 4 7 6 8 2 13 13 14 9 13 8 15 23 30 35 38 38 37 40 38 33 27 23 20 19 17 16 15 16 15 10 6 8 6 3 1 7 5 7
3 3 2 5 4 4 5 18 11 9 7 15 19 17 17 15 29 32 34 37 38 38 40 39 33 28 23 20 20 17 16 16 16 14 11 8 6 5 3 0 5 6 4 3
3 2 1 4 4 3 8 9 6 8 8 20 20 16 26 29 41 29 34 38 38 40 36 33 28 24 22 20 19 20 17 12 10 10 9 6 4 3 6 9 8 6 4 5
9 5 1 4 5 3 2 13 21 14 5 12 23 12 24 34 16 8 36 41 38 33 30 28 26 24 21 18 17 17 15 13 12 6 5 5 9 10 9 7 7 6 5 4
6 5 6 4 5 4 7 23 13 4 4 24 32 27 25 18 22 29 39 40 34 30 26 24 23 20 16 15 14 15 15 15 11 7 5 11 9 8 6 5 5 6 6 5
7 5 4 4 4 4 24 21 3 7 24 26 29 34 40 40 37 36 39 38 32 27 24 24 24 21 15 12 11 13 11 9 7 6 5 9 8 7 7 6 7 7 5 5
5 6 3 5 2 7 25 23 26 31 31 31 38 37 45 40 37 35 33 30 27 24 21 20 20 18 14 11 10 12 12 8 3 4 7 9 7 7 6 6 6 5 4 4
10 14 4 1 5 10 23 29 33 38 38 34 31 32 41 41 39 38 34 30 28 23 20 17 16 15 14 10 9 10 11 7 4 3 8 9 7 7 5 5 3 2 3 6
4 11 7 3 7 9 33 34 30 38 35 34 31 32 34 41 40 34 30 27 26 23 20 17 17 15 12 9 10 9 9 6 3 3 7 8 7 6 5 2 1 2 4 5
10 4 4 2 9 5 14 26 29 39 40 34 32 27 26 30 29 28 27 21 23 23 23 22 17 15 13 13 13 13 9 6 6 8 9 7 7 6 5 4 4 5 6 10
Wind_Direction
243 256 240 246 232 243 244 246 236 249 221 231 216 213 196 229 210 200 201 187 186 200 224 232 229 234 206 195 186 185 179 179 185 193 199 191 198 200 190 189 207 213 224 241
260 225 251 242 257 236 245 244 235 227 223 225 205 206 200 209 232 200 197 193 196 203 222 231 222 229 200 190 191 197 195 195 200 198 203 208 204 200 189 192 204 224 230 203
238 246 249 247 247 258 238 238 243 230 206 230 208 216 202 210 222 219 200 201 198 201 220 220 212 205 192 191 183 176 184 213 206 205 207 204 205 197 197 195 188 196 195 227
223 241 240 251 240 244 249 238 244 247 217 215 204 218 219 203 207 216 206 194 195 200 216 220 217 190 185 187 190 172 171 173 207 197 195 202 179 192 194 196 192 189 201 219
269 213 248 237 237 237 266 241 236 250 264 224 200 196 207 170 209 212 209 183 189 197 207 210 205 193 194 197 202 214 204 189 191 198 199 202 192 191 179 184 191 200 208 213
264 260 252 270 271 234 244 269 243 246 247 258 255 174 203 186 206 203 182 175 185 192 198 205 193 188 185 183 195 194 185 193 199 193 196 184 174 171 181 187 182 193 203 222
266 234 230 219 257 255 229 233 228 217 218 214 264 262 196 205 199 189 170 163 172 182 190 171 171 173 164 158 168 223 193 184 190 189 177 178 176 177 173 174 186 190 190 201
264 266 195 201 220 189 224 225 215 137 158 209 220 231 203 210 187 191 166 171 173 173 183 169 170 168 153 145 155 182 188 173 174 172 168 171 166 165 159 173 186 192 195 175
302 258 185 185 151 146 218 213 199 309 177 133 194 277 185 181 181 174 160 165 168 175 177 162 157 157 137 148 160 163 166 169 173 189 180 176 177 181 175 173 177 186 198 207
288 300 188 178 175 185 221 180 192 191 183 156 159 203 206 155 216 164 147 129 122 121 127 127 136 134 128 130 140 150 152 144 147 154 169 165 164 161 161 165 174 180 186 185
252 265 215 157 159 205 166 181 241 17 264 160 151 218 125 80 141 123 110 105 104 103 106 120 126 125 127 124 124 125 137 137 141 150 149 152 146 152 155 154 154 156 152 133
302 322 298 177 156 196 194 215 185 181 260 290 141 266 332 102 92 102 106 105 107 107 110 116 124 126 124 120 121 123 136 139 140 140 143 141 137 137 138 135 129 125 122 118
339 287 323 345 114 106 172 234 184 180 344 171 99 267 9 53 82 93 111 112 112 112 114 115 117 116 118 117 116 119 123 133 132 133 131 127 125 126 125 126 125 124 108 79
188 292 258 210 137 145 113 309 161 179 357 53 358 104 68 71 100 102 103 112 113 112 110 109 108 111 114 113 111 119 124 131 132 131 127 122 120 119 117 113 107 107 125 145
185 259 248 265 285 128 161 250 326 289 210 131 157 142 153 129 124 117 115 107 106 108 108 107 106 110 114 116 122 126 131 133 130 122 115 108 105 98 97 91 113 134 151 208
304 291 346 257 311 337 187 206 230 256 200 121 120 113 114 106 102 112 108 109 107 105 103 103 108 115 118 121 121 125 129 130 129 121 110 99 88 86 99 123 134 39 22 54
230 277 218 342 148 290 211 255 201 354 69 122 143 135 114 102 112 107 109 106 105 103 100 101 109 112 115 122 131 124 124 124 116 116 118 119 108 126 137 167 329 67 54 44
186 264 14 139 96 73 36 24 24 81 79 105 118 138 126 123 103 105 108 105 100 98 99 106 110 114 119 120 115 119 127 131 129 121 122 129 140 152 184 335 78 87 64 34
245 317 292 131 108 138 25 17 18 350 120 128 125 130 128 108 91 87 102 99 96 101 106 110 115 117 120 122 130 131 125 123 118 123 127 137 158 165 95 90 94 100 70 54
33 51 218 92 80 96 346 316 353 332 110 138 117 141 125 117 99 99 103 112 111 114 117 121 122 122 126 132 146 141 122 107 93 101 97 93 86 88 93 96 93 120 90 32
359 358 18 54 90 65 340 322 310 184 151 143 138 135 124 112 119 114 108 107 118 119 125 129 129 123 129 143 150 133 131 117 123 138 123 115 112 122 86 91 97 116 78 22
20 328 13 347 75 64 341 336 352 127 123 123 118 117 109 111 111 110 114 119 124 125 128 131 128 125 133 140 143 126 118 130 160 177 158 153 131 121 110 126 131 122 115 70
44 348 11 29 79 289 312 265 92 98 94 110 115 120 117 113 113 118 112 118 121 121 126 133 137 135 131 132 131 120 108 116 133 111 110 127 139 147 142 159 148 145 166 195
348 10 38 238 347 322 3 60 97 103 96 106 109 112 115 113 114 114 111 113 117 121 124 127 120 113 109 116 113 121 130 126 161 130 127 130 136 143 159 166 175 210 275 258
341 315 332 19 348 356 30 41 104 103 112 107 105 106 109 121 119 120 121 125 128 128 121 112 104 97 97 90 89 102 138 136 137 93 129 134 150 136 139 178 198 323 327 1
350 334 357 34 335 17 21 53 87 98 105 108 111 106 111 115 114 121 125 129 126 120 117 109 102 93 82 78 64 60 64 63 76 85 117 107 106 127 124 111 71 54 35 32